Simultaneous Nadir Overpasses (SNOs) Predictions

Prediction of SNOs between METOP-A and NOAA-19 Satellite Orbit:

Table of predicted SNOs for the next 14.0 days since TLE Epoch: 11/6/2016
Index Date (METOP-A) Time (METOP-A) Lat,Lon (METOP-A) SZA (METOP-A ) Date (NOAA-19) Time (NOAA-19) Lat,Lon (NOAA-19) SZA (NOAA-19 ) Distance(km) Time Diff (sec)
1 11/16/2016 21:42:09 -76.79, 37.33 84.19 11/16/2016 21:40:57 -76.79, 35.96 84.24 34.90 72
2 11/16/2016 22:32:53 76.60,-156.08 95.61 11/16/2016 22:31:59 76.59,-156.02 95.60 2.06 54
3 11/16/2016 23:23:35 -76.60, 11.23 84.39 11/16/2016 23:22:54 -76.58, 11.31 84.41 2.99 41
4 11/17/2016 00:14:15 76.58, 178.51 95.61 11/17/2016 00:14:01 76.60, 178.45 95.62 2.16 14
5 11/17/2016 01:04:57 -76.58, -14.18 84.39 11/17/2016 01:04:56 -76.58, -14.22 84.39 1.24 1
6 11/17/2016 01:55:36 76.56, 153.10 95.60 11/17/2016 01:56:01 76.56, 153.09 95.60 0.36 25
7 11/17/2016 02:46:18 -76.56, -39.59 84.40 11/17/2016 02:46:56 -76.55, -39.58 84.41 1.47 38
8 11/17/2016 03:36:58 76.54, 127.68 95.60 11/17/2016 03:38:02 76.52, 127.74 95.59 2.67 64
9 11/17/2016 04:27:43 -76.41, -65.50 84.55 11/17/2016 04:28:56 -76.47, -64.77 84.46 20.30 73




NCC Satellite Simultaneous Nadir Overpasses (SNOs) Prediction Service
